Jackson Hole, USA 16 day weather forecast

Slopes altitude range 1925 m - 3185m

Number of lifts: 12 Pistes: 116km

In some cases the lift and piste totals shown are for the ski domain (e.g. Three Valleys) rather than individual resort (e.g. Courchevel)

Overview

The 16 day weather forecast is fully updated 4 times every day.

    • Sun 26 MAY 2019
    • Sun 26
    • -1C 1C
    • Mon 27 MAY 2019
    • Mon 27
    • 0C 3C
    • Tue 28 MAY 2019
    • Tue 28
    • 0C 2C
    • Wed 29 MAY 2019
    • Wed 29
    • 0C 2C
    • Thu 30 MAY 2019
    • Thu 30
    • 0C 3C
    • Fri 31 MAY 2019
    • Fri 31
    • 3C 5C
    • Sat 01 JUN 2019
    • Sat 01
    • 2C 5C
    • Sun 02 JUN 2019
    • Sun 02
    • 3C 6C
    • Mon 03 JUN 2019
    • Mon 03
    • 7C 8C
    • Tue 04 JUN 2019
    • Tue 04
    • -2C 1C
    • Wed 05 JUN 2019
    • Wed 05
    • -3C 10C
    • Thu 06 JUN 2019
    • Thu 06
    • 3C 10C
    • Fri 07 JUN 2019
    • Fri 07
    • 1C 17C
    • Sat 08 JUN 2019
    • Sat 08
    • 4C 18C
    • Sun 09 JUN 2019
    • Sun 09
    • 5C 19C
    • Mon 10 JUN 2019
    • Mon 10
    • 5C 22C

Date:

Time Type 0°C level Temp Chill Snow Cloud Speed Gust Dir Press
12:00 2140m 1°C 1_4 0cm 100% 4mph 5mph 1012mB
15:00 3343m 6°C 6_4 0cm 100% 4mph 7mph 1010mB
18:00 3478m 13°C 13_5 0cm 100% 5mph 11mph 1008mB
21:00 3650m 13°C 13_4 0cm 100% 4mph 12mph 1006mB
0:00 3708m 12°C 12_3 0cm 100% 3mph 4mph 1005mB
3:00 3616m 5°C 5_5 0cm 100% 5mph 6mph 1007mB
6:00 3600m 3°C 3_4 0cm 100% 4mph 5mph 1008mB
9:00 3545m 0°C 0_4 0cm 75% 4mph 5mph 1008mB
12:00 3519m 3°C 3_5 0cm 87% 5mph 6mph 1007mB
15:00 3468m 7°C 7_4 0cm 100% 4mph 7mph 1005mB
18:00 3470m 15°C 15_1 0cm 100% 1mph 2mph 1004mB
21:00 3159m 6°C 6_4 0cm 100% 4mph 7mph 1004mB
0:00 3291m 5°C 5_2 0cm 100% 2mph 3mph 1003mB
3:00 3338m 4°C 4_3 0cm 100% 3mph 4mph 1005mB
6:00 3399m 2°C 2_3 0cm 100% 3mph 4mph 1006mB
9:00 3389m 1°C 1_4 0cm 100% 4mph 5mph 1006mB
12:00 3178m 2°C 2_5 0cm 100% 5mph 7mph 1007mB
15:00 3050m 5°C 5_6 0cm 100% 6mph 12mph 1007mB
18:00 3250m 9°C 9_7 0cm 100% 7mph 15mph 1008mB
21:00 3393m 9°C 9_9 0cm 100% 9mph 15mph 1008mB
0:00 3340m 9°C 9_8 0cm 100% 8mph 14mph 1008mB
3:00 3339m 4°C 4_4 0cm 100% 4mph 5mph 1011mB
6:00 3375m 1°C 1_4 0cm 92% 4mph 5mph 1014mB
9:00 2427m 0°C 0_3 0cm 7% 3mph 4mph 1014mB
12:00 3036m 2°C 2_3 0cm 54% 3mph 3mph 1015mB
15:00 3007m 8°C 8_2 0cm 96% 2mph 3mph 1014mB
18:00 3248m 12°C 12_2 0cm 90% 2mph 2mph 1012mB
21:00 3467m 12°C 12_3 0cm 87% 3mph 3mph 1010mB
0:00 3587m 10°C 10_3 0cm 88% 3mph 4mph 1009mB
3:00 3603m 6°C 6_3 0cm 100% 3mph 4mph 1011mB
6:00 3532m 3°C 3_3 0cm 100% 3mph 4mph 1013mB
9:00 3502m 2°C 2_4 0cm 97% 4mph 5mph 1013mB
12:00 3280m 3°C 3_4 0cm 77% 4mph 5mph 1014mB
15:00 3440m 9°C 9_3 0cm 81% 3mph 5mph 1013mB
18:00 3563m 16°C 16_4 0cm 89% 4mph 6mph 1011mB
21:00 3728m 14°C 14_5 0cm 100% 5mph 8mph 1009mB
0:00 3737m 11°C 11_4 0cm 100% 4mph 7mph 1009mB
3:00 3746m 7°C 7_3 0cm 100% 3mph 4mph 1011mB
6:00 3645m 5°C 5_3 0cm 100% 3mph 3mph 1012mB
9:00 3537m 3°C 3_3 0cm 100% 3mph 3mph 1012mB
12:00 3526m 5°C 5_3 0cm 100% 3mph 4mph 1013mB
15:00 3489m 8°C 8_3 0cm 100% 3mph 4mph 1012mB
18:00 3511m 12°C 12_4 0cm 100% 4mph 7mph 1011mB
21:00 3680m 12°C 12_6 0cm 100% 6mph 9mph 1009mB
0:00 3718m 12°C 12_5 0cm 100% 5mph 9mph 1009mB
3:00 3688m 7°C 7_3 0cm 100% 3mph 4mph 1011mB
6:00 3682m 5°C 5_3 0cm 100% 3mph 4mph 1013mB
9:00 3655m 3°C 3_2 0cm 100% 2mph 3mph 1013mB
12:00 3607m 5°C 5_3 0cm 75% 3mph 3mph 1014mB
15:00 3608m 11°C 11_2 0cm 1% 2mph 3mph 1012mB
18:00 3719m 17°C 17_5 0cm 1% 5mph 5mph 1010mB
21:00 3844m 16°C 16_9 0cm 65% 9mph 10mph 1008mB
0:00 3936m 13°C 13_4 0cm 81% 4mph 8mph 1008mB
3:00 3903m 8°C 8_4 0cm 100% 4mph 5mph 1010mB
6:00 3829m 6°C 6_3 0cm 100% 3mph 4mph 1011mB
9:00 3793m 4°C 4_3 0cm 73% 3mph 4mph 1011mB
12:00 3717m 6°C 6_4 0cm 37% 4mph 4mph 1011mB
15:00 3701m 11°C 11_4 0cm 0% 4mph 8mph 1010mB
18:00 3730m 16°C 16_10 0cm 0% 10mph 14mph 1008mB
21:00 3809m 17°C 17_13 0cm 18% 13mph 20mph 1005mB
0:00 3878m 17°C 17_13 0cm 31% 13mph 21mph 1005mB
3:00 3864m 11°C 11_6 0cm 46% 6mph 25mph 1007mB
6:00 3864m 8°C 8_6 0cm 45% 6mph 13mph 1007mB
9:00 3894m 8°C 8_7 0cm 4% 7mph 14mph 1005mB
12:00 3690m 8°C 8_5 0cm 45% 5mph 10mph 1004mB
15:00 3477m 8°C 8_10 0cm 100% 10mph 26mph 1004mB
18:00 2906m 8°C 8_13 0cm 97% 13mph 24mph 1006mB
21:00 2799m 7°C 7_16 0cm 98% 16mph 28mph 1007mB
0:00 2783m 7°C 7_16 0cm 50% 16mph 26mph 1009mB
3:00 2561m 2°C 2_9 0cm 0% 9mph 27mph 1012mB
6:00 2315m 0°C 0_11 0cm 27% 11mph 26mph 1017mB
9:00 2024m -1°C -1_7 0cm 80% 7mph 20mph 1019mB
12:00 1806m 1°C 1_4 0cm 74% 4mph 11mph 1020mB
15:00 2225m 2°C 2_8 0cm 63% 8mph 10mph 1018mB
18:00 2433m 5°C 5_10 1cm 67% 10mph 13mph 1016mB
21:00 2688m 6°C 6_11 1cm 68% 11mph 13mph 1015mB
0:00 2794m 6°C 6_11 1cm 38% 11mph 15mph 1015mB
3:00 2749m 2°C 2_6 0cm 33% 6mph 20mph 1018mB
6:00 2689m 1°C 1_6 0cm 54% 6mph 18mph 1020mB
Afternoon 0mm 0 2913m 10°C 10_11 0cm 14% 11mph 16mph 1017mB
Morning 0mm 0 3487m 4°C 4_6 0cm 40% 6mph 15mph 1017mB
Afternoon 0.192708mm 0 3464m 10°C 10_5 0cm 93% 5mph 11mph 1012mB
Morning 0.00520833mm 5.1875 3676m 6°C 6_3 0cm 65% 3mph 4mph 1016mB
Afternoon 0.317708mm 0 3744m 17°C 17_5 0cm 4% 5mph 7mph 1016mB
Morning 0.0208333mm 0 4161m 6°C 6_4 0cm 12% 4mph 5mph 1019mB
Afternoon 0.421875mm 0 4418m 18°C 18_7 0cm 0% 7mph 10mph 1015mB
Morning 0.0520833mm 0 4195m 8°C 8_6 0cm 0% 6mph 7mph 1018mB
Afternoon 1.00521mm 0 4063m 19°C 19_6 0cm 3% 6mph 8mph 1016mB
Morning 0.380208mm 0 4261m 7°C 7_7 0cm 1% 7mph 10mph 1022mB
Afternoon 0mm 0 4138m 22°C 22_3 0cm 52% 3mph 4mph 1018mB
Morning 0mm 0 4208m 11°C 11_4 0cm 94% 4mph 5mph 1018mB

16 day outlook at a glance

Forecast issued: 26/05/2019 11:00:38

Chat

Your comments and questions. In a resort? Let us know what it's like!


Characters left 250

For terms and conditions see Readers Comments on the Cookie and privacy policy page.